[[{"header":{"parameterUnit":"m.s-1","parameterCategory":2,"la1":30.2991,"la2":30.254,"lo1":-89.0895,"lo2":-89.0444,"dy":0.0017,"dx":0.0017,"nx":28,"ny":28,"refTime":"2024-05-25T03:00:00:Z","depth":"0","parameterNumber":2,"parameterNumberName":"U-component_of_CURRENTS"},"data":[0,0,0,0,0,0,0,0,0,0,0,0,0,0,0,0,0,0,0,0,0,0,0,0,0,0,0,0,0,0,0,0,0,0,0,0,0,0,0,0,0,0,0,0,0,0,0,0,0,0,0,0,0,0,0,0,0,0,0.3241,0.3241,0,0.3244,0.3244,0.3243,0.3223,0.3222,0.3222,0.3222,0.321,0.321,0.321,0,0,0,0,0,0,0,0,0,0,0,0,0,0.3225,0.3225,0.3241,0.3241,0.3242,0.3244,0.3244,0.3243,0.3223,0.3222,0.3222,0.3222,0.321,0.321,0.321,0,0,0,0,0,0,0,0,0,0,0,0,0,0.3228,0.3225,0.3241,0.3234,0.3233,0.3244,0.3244,0.3243,0.3223,0.3222,0.3222,0.3221,0.321,0.321,0.321,0.3219,0,0,0.321,0.321,0,0,0,0,0,0,0,0,0.3227,0.3228,0.3234,0.3234,0.3234,0.3235,0.3234,0.3235,0.3223,0.3224,0.3222,0.3221,0.3219,0.3218,0.3216,0.3219,0.3218,0.321,0.321,0.321,0.321,0,0,0,0,0,0,0,0.3227,0.3228,0.3239,0.3235,0.3235,0.3233,0.3232,0.3234,0.3222,0.3224,0.3223,0.3228,0.3218,0.3216,0.3216,0.3218,0.321,0.321,0.321,0.321,0.3267,0.3268,0,0,0,0,0,0,0.3233,0.3228,0.3239,0.3239,0.3233,0.3234,0.3233,0.3233,0.3222,0.3221,0.3228,0.3227,0.3216,0.3216,0.3215,0.3256,0.321,0.321,0.321,0.3265,0.3267,0.3269,0,0,0,0,0,0,0.3232,0.3234,0.3239,0.3236,0.3237,0.3235,0.3234,0.3233,0.3236,0.3226,0.3224,0.3233,0.3216,0.3215,0.3229,0.3254,0.321,0.321,0.3263,0.3266,0.3268,0.3319,0,0,0,0,0,0,0.3232,0.3233,0.3236,0.3236,0.3238,0.3251,0.3235,0.3234,0.3241,0.3239,0.323,0.3228,0.3216,0.3229,0.3229,0.3254,0.321,0.3261,0.3264,0.3267,0.3315,0.3322,0.3329,0,0,0,0,0,0.3231,0.3235,0.3236,0.3237,0.324,0.3251,0.3252,0.3247,0.3242,0.3246,0.3246,0.3228,0.3248,0.323,0.323,0.3255,0.326,0.3264,0.3267,0.3312,0.3321,0.3329,0,0,0,0,0,0,0.3226,0.3234,0.3234,0.3239,0.3249,0.3249,0.3253,0.3254,0.3257,0.3256,0.3243,0.3242,0.3266,0.3256,0.3238,0.3282,0.3253,0.3257,0.3288,0.3296,0.3303,0.3316,0.321,0,0,0,0,0,0.3229,0.3234,0.3243,0.3248,0.3254,0.3256,0.3261,0.3261,0.3265,0.3265,0.326,0.3264,0.328,0.3283,0.3289,0.3309,0.3321,0.3328,0.3335,0.334,0.3353,0.3401,0.3413,0.328,0.328,0.328,0,0,0.3227,0.3234,0.3236,0.3248,0.3252,0.3269,0.3257,0.3268,0.3287,0.3264,0.3283,0.3286,0.3292,0.3317,0.3327,0.3311,0.3384,0.3345,0.3349,0.3359,0.3406,0.3419,0.3431,0.3282,0.3282,0.3282,0,0,0.323,0.3235,0.3242,0.3256,0.3272,0.3279,0.3287,0.3294,0.3302,0.3325,0.3321,0.3342,0.3351,0.3366,0.3376,0.3426,0.342,0.3427,0.3469,0.3516,0.3528,0.3538,0.3567,0.3579,0.3428,0.3428,0.3428,0,0.323,0.3238,0.3247,0.3263,0.3276,0.3287,0.3303,0.3321,0.3333,0.3352,0.3337,0.3384,0.338,0.3432,0.3449,0.3442,0.3462,0.3434,0.3525,0.3536,0.3545,0.3573,0.3586,0.3431,0.3431,0.343,0.343,0,0.3243,0.3252,0.3259,0.3284,0.3302,0.3317,0.3346,0.3369,0.3381,0.34,0.3449,0.3455,0.3482,0.349,0.3483,0.3554,0.3544,0.3529,0.3503,0.3562,0.3587,0.3599,0.3435,0.3434,0.3433,0.3433,0,0,0.3222,0.3261,0.3258,0.3271,0.3313,0.3324,0.3374,0.3417,0.3454,0.348,0.3531,0.3563,0.3569,0.3582,0.3582,0.3623,0.37,0.3608,0.3609,0.3634,0.3801,0.3775,0.3786,0.3704,0.3707,0.3709,0.379,0,0.3223,0.3246,0.3273,0.3299,0.3312,0.3354,0.3398,0.3446,0.3488,0.3543,0.3582,0.3626,0.3605,0.3624,0.3665,0.3698,0.3737,0.3679,0.3743,0.3745,0.3713,0.3801,0.3722,0.3787,0.3803,0.3805,0.3806,0,0.3216,0.3233,0.3256,0.3301,0.3312,0.3341,0.3412,0.3457,0.3553,0.3589,0.3653,0.3684,0.3759,0.3726,0.3821,0.3787,0.3801,0.382,0.3823,0.3791,0.3743,0.3733,0.3809,0.3763,0.3825,0.3824,0.3822,0,0.3174,0.3214,0.3227,0.3244,0.3307,0.3336,0.3378,0.3468,0.3516,0.3628,0.3682,0.3763,0.3815,0.3861,0.3902,0.387,0.4005,0.3957,0.3946,0.3943,0.3886,0.3874,0.3923,0.4025,0.4025,0.4025,0.4025,0,0.3153,0.3159,0.3208,0.3217,0.3248,0.3308,0.3361,0.3429,0.3532,0.3602,0.3699,0.3773,0.3855,0.3936,0.3949,0.4003,0.4042,0.3981,0.3978,0.39,0.3889,0.385,0.3832,0.4028,0.4027,0.4027,0.4026,0,0.3097,0.313,0.3148,0.3208,0.3228,0.3252,0.3338,0.3379,0.3498,0.3602,0.3645,0.3803,0.3919,0.3993,0.4083,0.4064,0.4007,0.4111,0.401,0.3993,0.3908,0.3895,0.3644,0.3555,0.4109,0.4109,0.4109,0,0.3072,0.3074,0.3124,0.3131,0.3156,0.32,0.323,0.3345,0.3404,0.3611,0.3661,0.3828,0.393,0.4075,0.4099,0.4146,0.4008,0.4073,0.3991,0.3923,0.3907,0.361,0.3532,0.3934,0.3932,0.3931,0.393,0,0.302,0.3037,0.3049,0.3067,0.309,0.3116,0.3181,0.3224,0.3377,0.3479,0.3629,0.3738,0.393,0.3983,0.4076,0.4074,0.3889,0.4048,0.4015,0.3819,0.3462,0.3368,0.3849,0.392,0.3921,0.3922,0.3922,0.3923,0.2974,0.2967,0.2982,0.2988,0.3007,0.302,0.301,0.3102,0.3184,0.3323,0.3504,0.3632,0.3855,0.3988,0.3968,0.3932,0.3802,0.3846,0.3851,0.3562,0.3424,0.3878,0.3919,0.392,0.3921,0.3921,0.3922,0,0.29,0.2897,0.2899,0.2893,0.2863,0.2914,0.2954,0.2935,0.2979,0.3173,0.3288,0.3523,0.3636,0.3773,0.3862,0.3775,0.351,0.3691,0.3305,0.3256,0.3735,0.3685,0.3631,0.3632,0.3632,0.3632,0.3632,0.3632,0.2862,0.2827,0.2823,0.2747,0.2734,0.2665,0.2658,0.267,0.2765,0.2889,0.3022,0.3174,0.3487,0.3703,0.3706,0.3638,0.3358,0.3164,0.3135,0.3584,0.3597,0.361,0.3559,0.3481,0.3481,0.2473,0.2467,0.2462]},{"header":{"parameterUnit":"m.s-1","parameterCategory":2,"la1":30.2991,"la2":30.254,"lo1":-89.0895,"lo2":-89.0444,"dy":0.0017,"dx":0.0017,"nx":28,"ny":28,"refTime":"2024-05-25T03:00:00:Z","depth":"0","parameterNumber":3,"parameterNumberName":"V-component_of_CURRENTS"},"data":[0,0,0,0,0,0,0,0,0,0,0,0,0,0,0,0,0,0,0,0,0,0,0,0,0,0,0,0,0,0,0,0,0,0,0,0,0,0,0,0,0,0,0,0,0,0,0,0,0,0,0,0,0,0,0,0,0,0,0.0411,0.0411,0,0.0368,0.0368,0.0367,0.0334,0.0334,0.0333,0.0333,0.0254,0.0253,0.0251,0,0,0,0,0,0,0,0,0,0,0,0,0,0.0413,0.0414,0.0411,0.0411,0.041,0.0369,0.0368,0.0367,0.0334,0.0334,0.0333,0.0333,0.0255,0.0253,0.025,0,0,0,0,0,0,0,0,0,0,0,0,0,0.0395,0.0414,0.0411,0.039,0.0387,0.0369,0.0368,0.0367,0.0334,0.0334,0.0333,0.0333,0.0256,0.0253,0.025,0.0239,0,0,0.0241,0.024,0,0,0,0,0,0,0,0,0.0396,0.0394,0.0393,0.0391,0.0389,0.0357,0.034,0.0323,0.0334,0.0353,0.0333,0.0333,0.0287,0.0281,0.0272,0.0235,0.0232,0.0241,0.0239,0.0238,0.0237,0,0,0,0,0,0,0,0.0397,0.0396,0.0393,0.0393,0.039,0.0365,0.0362,0.0336,0.032,0.0351,0.0349,0.0346,0.0285,0.0275,0.027,0.023,0.0241,0.0239,0.0237,0.0236,0.018,0.018,0,0,0,0,0,0,0.0408,0.0397,0.0394,0.0392,0.0393,0.0365,0.0362,0.0367,0.0321,0.0315,0.0347,0.0345,0.028,0.0274,0.0267,0.0269,0.0238,0.0236,0.0234,0.018,0.018,0.018,0,0,0,0,0,0,0.0409,0.0409,0.0396,0.0394,0.0391,0.0366,0.0371,0.0366,0.036,0.0319,0.0311,0.0346,0.028,0.0271,0.0253,0.0265,0.0234,0.0232,0.018,0.018,0.018,0.026,0,0,0,0,0,0,0.0409,0.0409,0.0416,0.0395,0.0391,0.0393,0.0371,0.0365,0.0359,0.0356,0.0315,0.0308,0.0279,0.0258,0.025,0.026,0.0229,0.0179,0.018,0.018,0.0257,0.0263,0.0268,0,0,0,0,0,0.0409,0.0423,0.0417,0.0416,0.0402,0.0394,0.039,0.0369,0.0359,0.0362,0.0336,0.0309,0.0255,0.0256,0.0247,0.0256,0.0179,0.018,0.018,0.0254,0.0262,0.0268,0,0,0,0,0,0,0.0425,0.0421,0.0413,0.0424,0.0413,0.0389,0.0389,0.0376,0.0357,0.0353,0.0314,0.0305,0.0292,0.0262,0.0264,0.024,0.0211,0.021,0.0271,0.0277,0.0283,0.0302,0.0227,0,0,0,0,0,0.0434,0.0444,0.0431,0.0439,0.0436,0.0413,0.0408,0.0395,0.0376,0.0367,0.034,0.0309,0.0287,0.0274,0.0246,0.0235,0.0203,0.0233,0.0239,0.0244,0.0253,0.0216,0.0219,0.0182,0.0182,0.0182,0,0,0.0441,0.044,0.0445,0.0443,0.0432,0.0441,0.0409,0.0406,0.0415,0.0361,0.0362,0.0328,0.0288,0.0278,0.0269,0.0255,0.0237,0.0245,0.0249,0.0255,0.0217,0.022,0.0224,0.0183,0.0182,0.0182,0,0,0.0465,0.0462,0.048,0.0479,0.0471,0.0461,0.0464,0.0445,0.0437,0.0432,0.0397,0.0371,0.0338,0.0312,0.0296,0.0313,0.0268,0.0302,0.0346,0.0311,0.0314,0.0316,0.0281,0.0279,0.0305,0.0305,0.0305,0,0.0475,0.05,0.0482,0.0501,0.051,0.0476,0.0501,0.0488,0.0466,0.0467,0.0443,0.0397,0.0356,0.0349,0.0352,0.0327,0.03,0.0328,0.032,0.0321,0.0322,0.0285,0.0283,0.0309,0.0308,0.0308,0.0307,0,0.0515,0.0535,0.0546,0.0564,0.0569,0.0583,0.057,0.057,0.0555,0.0541,0.0528,0.0471,0.0446,0.0424,0.0393,0.0383,0.0359,0.0333,0.0308,0.0331,0.029,0.0286,0.0314,0.0313,0.0312,0.0311,0,0,0.0544,0.0571,0.0577,0.0604,0.0608,0.0621,0.0638,0.0648,0.067,0.0628,0.0649,0.0588,0.0552,0.0529,0.0479,0.0442,0.0415,0.0396,0.0392,0.037,0.0339,0.034,0.0335,0.039,0.039,0.039,0.0308,0,0.0584,0.064,0.0642,0.0698,0.0728,0.0716,0.0743,0.0745,0.0732,0.074,0.0677,0.0671,0.0594,0.0586,0.0534,0.0453,0.0408,0.0439,0.0311,0.0307,0.0313,0.0331,0.0409,0.0345,0.0304,0.0303,0.0303,0,0.063,0.0667,0.0731,0.0784,0.0798,0.0827,0.0871,0.089,0.0883,0.0874,0.0842,0.0792,0.0737,0.0667,0.0532,0.0558,0.0455,0.038,0.0374,0.0347,0.0301,0.0313,0.0338,0.0228,0.0296,0.0296,0.0297,0,0.0675,0.0732,0.0792,0.081,0.0859,0.0893,0.092,0.0933,0.0971,0.096,0.0982,0.0894,0.0872,0.0732,0.0571,0.0552,0.0423,0.0374,0.0275,0.0273,0.03,0.0301,0.0213,0.0273,0.0273,0.0274,0.0274,0,0.0726,0.0775,0.0822,0.0858,0.0946,0.0955,0.104,0.105,0.1083,0.1152,0.1057,0.1086,0.0888,0.079,0.0616,0.0447,0.0453,0.029,0.0257,0.0329,0.0334,0.0206,0.0138,0.0271,0.0271,0.0272,0.0272,0,0.0768,0.0794,0.0871,0.0939,0.0971,0.1035,0.1131,0.1189,0.1207,0.1293,0.1301,0.1234,0.1115,0.0908,0.0692,0.0528,0.0301,0.0281,0.0381,0.0361,0.0161,0.0096,-0.001,-0.0061,0.0158,0.0158,0.0158,0,0.0793,0.0837,0.0935,0.0993,0.1031,0.1126,0.12,0.125,0.1325,0.1397,0.1452,0.1369,0.1349,0.1031,0.0735,0.0448,0.0308,0.0305,0.0273,0.0171,0.0072,0.0043,0.0006,0.0333,0.0334,0.0335,0.0336,0,0.0843,0.0877,0.0944,0.1066,0.1156,0.1268,0.1378,0.1463,0.1546,0.1635,0.1731,0.1724,0.1445,0.1219,0.0819,0.0595,0.0274,0.0313,0.0186,0.0189,0.0176,0.0106,0.0357,0.0344,0.0344,0.0343,0.0342,0.0342,0.088,0.0937,0.1027,0.1147,0.1255,0.1404,0.1516,0.1653,0.1817,0.1989,0.1956,0.2039,0.1707,0.1188,0.0829,0.0332,0.0316,0.0208,0.0131,0.0107,0.0081,0.0351,0.0314,0.0313,0.0312,0.0311,0.0311,0,0.0925,0.0994,0.1102,0.1251,0.1379,0.1434,0.1634,0.1775,0.1998,0.2192,0.2301,0.2307,0.1835,0.1329,0.065,0.0257,0.0105,0.0053,0.0033,-0.0006,0.0222,0.0253,0.023,0.023,0.023,0.023,0.023,0.023,0.095,0.1055,0.1117,0.1332,0.1442,0.1635,0.1762,0.1993,0.2196,0.253,0.2711,0.2803,0.2577,0.1251,0.038,0.0124,-0.0129,-0.0166,-0.0322,-0.0163,-0.0155,-0.0146,-0.0133,-0.0237,-0.0238,-0.0465,-0.0467,-0.0469]}],[{"header":{"parameterUnit":"m.s-1","parameterCategory":2,"la1":30.2991,"la2":30.254,"lo1":-89.0895,"lo2":-89.0444,"dy":0.0017,"dx":0.0017,"nx":28,"ny":28,"refTime":"2024-05-25T03:00:00:Z","depth":"2","parameterNumber":2,"parameterNumberName":"U-component_of_CURRENTS"},"data":[0,0,0,0,0,0,0,0,0,0,0,0,0,0,0,0,0,0,0,0,0,0,0,0,0,0,0,0,0,0,0,0,0,0,0,0,0,0,0,0,0,0,0,0,0,0,0,0,0,0,0,0,0,0,0,0,0,0,0.3173,0.3173,0,0.3176,0.3176,0.3176,0.3159,0.3159,0.3159,0.3158,0.315,0.315,0.315,0,0,0,0,0,0,0,0,0,0,0,0,0,0.3158,0.3158,0.3173,0.3173,0.3174,0.3177,0.3176,0.3176,0.3159,0.3159,0.3159,0.3158,0.315,0.315,0.315,0,0,0,0,0,0,0,0,0,0,0,0,0,0.316,0.3158,0.3173,0.3168,0.3167,0.3177,0.3176,0.3176,0.3159,0.3159,0.3159,0.3158,0.315,0.315,0.315,0.3157,0,0,0.315,0.315,0,0,0,0,0,0,0,0,0.316,0.3161,0.3168,0.3168,0.3168,0.317,0.3168,0.317,0.3159,0.3159,0.3158,0.3158,0.3158,0.3157,0.3155,0.3157,0.3156,0.315,0.315,0.315,0.315,0,0,0,0,0,0,0,0.316,0.316,0.3172,0.3169,0.3168,0.3167,0.3167,0.3168,0.3158,0.3159,0.3159,0.3164,0.3157,0.3155,0.3154,0.3156,0.315,0.315,0.315,0.315,0.3207,0.3208,0,0,0,0,0,0,0.3165,0.316,0.3172,0.3172,0.3166,0.3168,0.3168,0.3167,0.3158,0.3157,0.3164,0.3163,0.3155,0.3154,0.3154,0.3196,0.315,0.315,0.315,0.3205,0.3207,0.3209,0,0,0,0,0,0,0.3165,0.3166,0.3171,0.3169,0.317,0.3169,0.3168,0.3167,0.3172,0.3163,0.3161,0.3171,0.3154,0.3154,0.3169,0.3195,0.315,0.315,0.3203,0.3206,0.3208,0.3259,0,0,0,0,0,0,0.3164,0.3166,0.3169,0.3169,0.317,0.3183,0.3169,0.3168,0.3177,0.3175,0.3168,0.3166,0.3154,0.3169,0.3169,0.3194,0.315,0.3201,0.3204,0.3207,0.3255,0.3263,0.3269,0,0,0,0,0,0.3164,0.3168,0.3169,0.3171,0.3174,0.3184,0.3184,0.318,0.3177,0.3182,0.3183,0.3167,0.3187,0.317,0.3169,0.3195,0.32,0.3204,0.3207,0.3252,0.3261,0.3269,0,0,0,0,0,0,0.316,0.3167,0.3168,0.3173,0.3182,0.3182,0.3187,0.3188,0.3192,0.3193,0.3181,0.318,0.3205,0.3195,0.3177,0.3222,0.3193,0.3196,0.3228,0.3236,0.3243,0.3255,0.315,0,0,0,0,0,0.3163,0.3168,0.3177,0.3182,0.3188,0.319,0.3195,0.3196,0.32,0.3201,0.3198,0.3203,0.3218,0.3222,0.3228,0.3248,0.3259,0.3267,0.3274,0.328,0.3291,0.3338,0.3351,0.322,0.322,0.322,0,0,0.3162,0.3168,0.3171,0.3182,0.3187,0.3202,0.3192,0.3204,0.3222,0.3201,0.3221,0.3225,0.323,0.3256,0.3266,0.325,0.3323,0.3284,0.3289,0.3297,0.3343,0.3356,0.3367,0.3222,0.3222,0.3221,0,0,0.3166,0.3171,0.3178,0.3191,0.3207,0.3213,0.3222,0.323,0.3238,0.3261,0.3258,0.328,0.329,0.3304,0.3313,0.3363,0.3358,0.3365,0.3407,0.3453,0.3464,0.3474,0.3502,0.3514,0.3367,0.3367,0.3367,0,0.3167,0.3174,0.3182,0.3198,0.3211,0.3223,0.3238,0.3255,0.3268,0.3287,0.3274,0.3321,0.3318,0.3369,0.3386,0.3379,0.3399,0.3373,0.3462,0.3472,0.3481,0.3508,0.3521,0.337,0.337,0.3369,0.3369,0,0.3179,0.3187,0.3195,0.3219,0.3236,0.3251,0.3279,0.3302,0.3316,0.3335,0.3385,0.339,0.3418,0.3426,0.342,0.3489,0.3481,0.3466,0.344,0.3498,0.3522,0.3534,0.3374,0.3373,0.3372,0.3371,0,0,0.316,0.3196,0.3194,0.3206,0.3247,0.3257,0.3307,0.3348,0.3385,0.3412,0.3463,0.3496,0.3503,0.3516,0.3517,0.3557,0.3633,0.3543,0.3544,0.3569,0.3733,0.3703,0.3713,0.3638,0.3641,0.3643,0.3722,0,0.3161,0.3183,0.3208,0.3232,0.3245,0.3286,0.3329,0.3376,0.3418,0.3472,0.3512,0.3557,0.3538,0.3558,0.3598,0.363,0.3669,0.3613,0.3675,0.3677,0.3642,0.3728,0.3396,0.3437,0.3734,0.3736,0.3737,0,0.3154,0.317,0.3191,0.3234,0.3245,0.3273,0.3343,0.3387,0.3481,0.3518,0.3583,0.3614,0.3688,0.3657,0.375,0.3718,0.3732,0.375,0.3753,0.3718,0.3671,0.3429,0.3448,0.3758,0.3756,0.3754,0.3753,0,0.3114,0.3151,0.3164,0.318,0.3241,0.3269,0.3311,0.3399,0.3446,0.3557,0.3611,0.3691,0.3743,0.3789,0.383,0.3799,0.393,0.3884,0.387,0.3867,0.3593,0.3562,0.3951,0.395,0.395,0.395,0.395,0,0.3093,0.3099,0.3147,0.3154,0.3186,0.3244,0.3296,0.3363,0.3464,0.3533,0.3629,0.3701,0.3783,0.3862,0.3875,0.3926,0.3967,0.3903,0.39,0.3602,0.3572,0.3851,0.3838,0.3953,0.3952,0.3952,0.3951,0,0.304,0.3071,0.3088,0.3146,0.3166,0.3191,0.3276,0.3316,0.3434,0.3534,0.3578,0.3731,0.3844,0.3917,0.4005,0.3985,0.403,0.4029,0.3675,0.363,0.3919,0.3908,0.4022,0.4022,0.4022,0.4022,0.4022,0,0.3015,0.3017,0.3066,0.3072,0.3097,0.3142,0.3172,0.3285,0.3342,0.3543,0.3591,0.3753,0.3846,0.3985,0.3963,0.3996,0.4061,0.372,0.3605,0.3949,0.3934,0.3923,0.3912,0.3249,0.3243,0.3238,0.3233,0,0.2965,0.2982,0.2993,0.3011,0.3034,0.3058,0.3123,0.3164,0.3313,0.3408,0.3551,0.3651,0.3794,0.3695,0.3765,0.3731,0.3691,0.362,0.407,0.3304,0.3232,0.3214,0.3226,0.3187,0.3192,0.3195,0.3198,0.3199,0.292,0.2913,0.2927,0.2933,0.2952,0.2963,0.2953,0.3026,0.3099,0.3191,0.3383,0.3412,0.3469,0.341,0.3318,0.324,0.3504,0.3336,0.3345,0.3362,0.3281,0.3215,0.315,0.3154,0.3158,0.3161,0.3164,0,0.2838,0.2845,0.2846,0.2839,0.2799,0.2861,0.2897,0.284,0.2856,0.2972,0.3044,0.2839,0.2808,0.2861,0.2676,0.2709,0.2605,0.2595,0.2418,0.247,0.2514,0.2381,0.2016,0.2012,0.2008,0.2005,0,0,0.2798,0.2758,0.2753,0.2673,0.267,0.2593,0.2585,0.2524,0.2543,0.2483,0.2468,0.2666,0.28,0.2362,0.232,0.2137,0.2269,0.2043,0.2974,0.2818,0.2857,0.2969,0.2829,0,0,0,0,0]},{"header":{"parameterUnit":"m.s-1","parameterCategory":2,"la1":30.2991,"la2":30.254,"lo1":-89.0895,"lo2":-89.0444,"dy":0.0017,"dx":0.0017,"nx":28,"ny":28,"refTime":"2024-05-25T03:00:00:Z","depth":"2","parameterNumber":3,"parameterNumberName":"V-component_of_CURRENTS"},"data":[0,0,0,0,0,0,0,0,0,0,0,0,0,0,0,0,0,0,0,0,0,0,0,0,0,0,0,0,0,0,0,0,0,0,0,0,0,0,0,0,0,0,0,0,0,0,0,0,0,0,0,0,0,0,0,0,0,0,0.0343,0.0343,0,0.0301,0.0301,0.03,0.0268,0.0268,0.0268,0.0268,0.019,0.0189,0.0187,0,0,0,0,0,0,0,0,0,0,0,0,0,0.0346,0.0347,0.0343,0.0343,0.0343,0.0301,0.0301,0.03,0.0268,0.0268,0.0268,0.0267,0.0191,0.0189,0.0187,0,0,0,0,0,0,0,0,0,0,0,0,0,0.0328,0.0347,0.0343,0.0323,0.0321,0.0301,0.0301,0.03,0.0268,0.0268,0.0268,0.0267,0.0192,0.0189,0.0186,0.0174,0,0,0.0178,0.0176,0,0,0,0,0,0,0,0,0.0329,0.0327,0.0326,0.0324,0.0322,0.0291,0.0273,0.0256,0.0268,0.0287,0.0268,0.0267,0.0222,0.0216,0.0208,0.017,0.0167,0.0177,0.0176,0.0174,0.0174,0,0,0,0,0,0,0,0.033,0.0329,0.0325,0.0326,0.0323,0.0299,0.0296,0.027,0.0254,0.0285,0.0283,0.028,0.022,0.0211,0.0206,0.0166,0.0177,0.0175,0.0173,0.0172,0.0118,0.0118,0,0,0,0,0,0,0.0341,0.033,0.0327,0.0324,0.0326,0.0299,0.0296,0.03,0.0255,0.0249,0.0281,0.0279,0.0216,0.0209,0.0203,0.0205,0.0174,0.0172,0.017,0.0117,0.0118,0.0118,0,0,0,0,0,0,0.0341,0.0341,0.0328,0.0327,0.0324,0.03,0.0304,0.0299,0.0294,0.0253,0.0245,0.0281,0.0215,0.0207,0.0189,0.0201,0.017,0.0168,0.0117,0.0117,0.0118,0.0197,0,0,0,0,0,0,0.0342,0.0342,0.0349,0.0328,0.0324,0.0326,0.0304,0.0299,0.0293,0.0291,0.025,0.0243,0.0214,0.0194,0.0186,0.0197,0.0166,0.0117,0.0117,0.0118,0.0194,0.02,0.0206,0,0,0,0,0,0.0342,0.0356,0.035,0.0349,0.0335,0.0326,0.0322,0.0303,0.0294,0.0296,0.0271,0.0244,0.0191,0.0192,0.0183,0.0193,0.0117,0.0117,0.0118,0.0192,0.0199,0.0205,0,0,0,0,0,0,0.0359,0.0354,0.0346,0.0357,0.0346,0.0322,0.0322,0.0309,0.0291,0.0288,0.025,0.024,0.0229,0.0198,0.02,0.0177,0.0148,0.0147,0.0208,0.0214,0.022,0.0239,0.0163,0,0,0,0,0,0.0367,0.0378,0.0363,0.0372,0.0369,0.0347,0.0341,0.0329,0.031,0.0302,0.0275,0.0245,0.0223,0.021,0.0183,0.0173,0.014,0.0171,0.0177,0.0182,0.019,0.0153,0.0157,0.012,0.012,0.012,0,0,0.0375,0.0374,0.0379,0.0376,0.0365,0.0374,0.0343,0.034,0.0349,0.0296,0.0298,0.0264,0.0224,0.0215,0.0206,0.0192,0.0174,0.0183,0.0188,0.0193,0.0154,0.0158,0.0161,0.012,0.012,0.012,0,0,0.0399,0.0396,0.0413,0.0412,0.0405,0.0394,0.0398,0.0379,0.0372,0.0367,0.0333,0.0308,0.0275,0.025,0.0233,0.0251,0.0206,0.0241,0.0285,0.0249,0.0252,0.0254,0.0219,0.0217,0.0243,0.0244,0.0244,0,0.0409,0.0433,0.0416,0.0434,0.0443,0.041,0.0434,0.0422,0.04,0.0402,0.0379,0.0334,0.0294,0.0286,0.029,0.0265,0.0238,0.0267,0.0258,0.0259,0.026,0.0223,0.022,0.0247,0.0247,0.0247,0.0246,0,0.0448,0.0469,0.0479,0.0497,0.0501,0.0515,0.0503,0.0503,0.0489,0.0475,0.0463,0.0407,0.0383,0.0362,0.0331,0.0321,0.0297,0.0271,0.0246,0.0269,0.0228,0.0224,0.0253,0.0252,0.0251,0.025,0,0,0.0478,0.0503,0.051,0.0536,0.054,0.0553,0.0569,0.0579,0.0601,0.056,0.0581,0.0522,0.0487,0.0465,0.0416,0.0379,0.0352,0.0333,0.033,0.0307,0.0275,0.0276,0.027,0.0328,0.0327,0.0327,0.0245,0,0.0518,0.0573,0.0574,0.0629,0.0659,0.0646,0.0673,0.0675,0.0662,0.067,0.0608,0.0603,0.0529,0.0521,0.0471,0.0389,0.0345,0.0377,0.0248,0.0244,0.0249,0.0267,0.0267,0.0196,0.024,0.0239,0.0239,0,0.0564,0.0599,0.0662,0.0714,0.0727,0.0756,0.0799,0.0818,0.081,0.0801,0.0771,0.0722,0.0668,0.06,0.0466,0.0492,0.0391,0.0316,0.0311,0.0282,0.0237,0.0178,0.0186,0.0231,0.0232,0.0232,0.0233,0,0.0608,0.0664,0.0723,0.074,0.0788,0.0822,0.0848,0.0861,0.0898,0.0887,0.0908,0.0822,0.08,0.0662,0.0503,0.0485,0.0355,0.0308,0.0209,0.0207,0.0168,0.0164,0.0208,0.0208,0.0208,0.0208,0.0209,0,0.0659,0.0707,0.0753,0.0789,0.0875,0.0884,0.0967,0.0977,0.1009,0.1076,0.0983,0.1009,0.0815,0.0717,0.0547,0.0378,0.0384,0.0224,0.019,0.0196,0.0195,0.0192,0.0192,0.0205,0.0206,0.0206,0.0207,0,0.0702,0.0727,0.0802,0.0869,0.0901,0.0964,0.1058,0.1115,0.1132,0.1216,0.1223,0.1154,0.1036,0.0831,0.0617,0.0456,0.0279,0.0212,0.0235,0.0206,0.0138,0.0143,0.009,0.009,0.0089,0.0089,0.0088,0,0.0726,0.077,0.0867,0.0924,0.0961,0.1055,0.1128,0.1177,0.1249,0.1317,0.1369,0.1285,0.1259,0.0943,0.0637,0.0349,0.03,0.0153,0.0113,0.0156,0.0128,0.0133,0.0138,0.0082,0.0082,0.0081,0.0081,0,0.0777,0.0811,0.0876,0.0997,0.1086,0.1195,0.1304,0.1386,0.1465,0.1547,0.1636,0.1623,0.1332,0.1045,0.0644,0.0432,0.0198,0.0139,0.0176,0.0126,0.0145,0.0119,0.0124,0.0078,0.0079,0.0079,0.0079,0.0079,0.0815,0.087,0.096,0.1078,0.1185,0.133,0.144,0.1557,0.1709,0.1827,0.1813,0.1783,0.1452,0.0937,0.0579,0.0186,0.0216,0.0056,0.0058,0.006,0.0088,0.0107,0.0037,0.0037,0.0037,0.0037,0.0037,0,0.0854,0.0928,0.1034,0.1181,0.1299,0.1362,0.1556,0.1653,0.1843,0.1933,0.1996,0.1666,0.1353,0.0961,0.0396,0.0077,0.0024,-0.0052,-0.0044,-0.0038,-0.0034,-0.0011,-0.0088,-0.0089,-0.0091,-0.0092,0,0,0.0878,0.0978,0.1038,0.1245,0.1361,0.1542,0.1665,0.1806,0.1905,0.1981,0.1965,0.19,0.1468,0.1025,0.0577,0.0251,0.0173,0.0168,0.0305,0.0373,0.0381,0.0066,0.0113,0,0,0,0,0]}],[{"header":{"parameterUnit":"m.s-1","parameterCategory":2,"la1":30.2991,"la2":30.254,"lo1":-89.0895,"lo2":-89.0444,"dy":0.0017,"dx":0.0017,"nx":28,"ny":28,"refTime":"2024-05-25T03:00:00:Z","depth":"4","parameterNumber":2,"parameterNumberName":"U-component_of_CURRENTS"},"data":[0,0,0,0,0,0,0,0,0,0,0,0,0,0,0,0,0,0,0,0,0,0,0,0,0,0,0,0,0,0,0,0,0,0,0,0,0,0,0,0,0,0,0,0,0,0,0,0,0,0,0,0,0,0,0,0,0,0,0.1998,0.1999,0,0.2055,0.2056,0.2056,0.2115,0.2116,0.2117,0.2118,0.2205,0.2206,0.2208,0,0,0,0,0,0,0,0,0,0,0,0,0,0.1933,0.1933,0.1998,0.1999,0.2,0.2055,0.2056,0.2056,0.2115,0.2116,0.2118,0.2119,0.2204,0.2206,0.2208,0,0,0,0,0,0,0,0,0,0,0,0,0,0.1971,0.1934,0.1998,0.2037,0.2041,0.2055,0.2056,0.2057,0.2115,0.2117,0.2118,0.2119,0.2204,0.2206,0.2208,0.2191,0,0,0.2214,0.2215,0,0,0,0,0,0,0,0,0.1968,0.1973,0.203,0.2034,0.2039,0.2081,0.2065,0.2104,0.2115,0.2085,0.2118,0.212,0.2166,0.2172,0.2176,0.2195,0.2199,0.2215,0.2216,0.2217,0.2217,0,0,0,0,0,0,0,0.1966,0.1971,0.2019,0.2031,0.2037,0.205,0.2057,0.2072,0.2116,0.2088,0.2093,0.2102,0.2169,0.2174,0.2179,0.22,0.2215,0.2216,0.2218,0.2218,0.2347,0.2349,0,0,0,0,0,0,0.1961,0.1968,0.2017,0.2021,0.2009,0.205,0.2058,0.2065,0.2115,0.2125,0.21,0.2104,0.217,0.2176,0.2182,0.2289,0.2217,0.2219,0.222,0.2345,0.2348,0.235,0,0,0,0,0,0,0.196,0.1965,0.2015,0.1997,0.2005,0.205,0.2057,0.2065,0.2115,0.2125,0.2135,0.2147,0.2171,0.2179,0.2238,0.2288,0.222,0.2221,0.2342,0.2346,0.2349,0.2424,0,0,0,0,0,0,0.1957,0.1964,0.1989,0.1997,0.2006,0.2049,0.2056,0.2065,0.2116,0.2123,0.2167,0.2174,0.2173,0.2235,0.224,0.229,0.2223,0.234,0.2344,0.2348,0.2418,0.2429,0.2438,0,0,0,0,0,0.1955,0.1974,0.1989,0.1997,0.2031,0.2051,0.2057,0.2092,0.2118,0.2142,0.218,0.2175,0.2265,0.2238,0.2244,0.2295,0.2338,0.2343,0.2347,0.2414,0.2427,0.2438,0,0,0,0,0,0,0.196,0.1982,0.1999,0.2026,0.2052,0.2062,0.2094,0.2116,0.2164,0.2186,0.2197,0.2206,0.2277,0.2276,0.2246,0.2345,0.2303,0.2309,0.2352,0.2364,0.2374,0.2373,0.2225,0,0,0,0,0,0.1971,0.1996,0.2013,0.2042,0.2057,0.2085,0.2107,0.213,0.2162,0.2187,0.2218,0.2256,0.2292,0.2321,0.2345,0.2396,0.2396,0.2435,0.2445,0.2453,0.2458,0.2505,0.2519,0.2366,0.2366,0.2366,0,0,0.1983,0.1999,0.2016,0.2046,0.207,0.2097,0.2103,0.2147,0.2185,0.2187,0.2265,0.2292,0.2313,0.2374,0.2406,0.2386,0.2498,0.246,0.2466,0.2467,0.2511,0.2526,0.2539,0.2369,0.2369,0.2368,0,0,0.1999,0.2033,0.2054,0.2078,0.2121,0.2136,0.2159,0.2196,0.2236,0.2299,0.2317,0.2375,0.243,0.2454,0.2472,0.2551,0.2546,0.2571,0.2626,0.2672,0.2684,0.2695,0.2715,0.2727,0.258,0.258,0.258,0,0.2019,0.204,0.2066,0.2091,0.2119,0.2159,0.2188,0.2228,0.2287,0.2326,0.234,0.2445,0.2465,0.2537,0.2571,0.2573,0.2593,0.2577,0.2684,0.2695,0.2705,0.2722,0.2735,0.2584,0.2583,0.2583,0.2583,0,0.2035,0.2071,0.2088,0.2133,0.2168,0.2202,0.225,0.2308,0.2364,0.2402,0.2501,0.2535,0.2597,0.2621,0.2624,0.2714,0.2703,0.2687,0.265,0.2725,0.2738,0.275,0.259,0.2588,0.2587,0.2586,0,0,0.202,0.2086,0.2096,0.2124,0.2194,0.2216,0.2298,0.2366,0.2429,0.2506,0.2587,0.2663,0.2696,0.2719,0.2739,0.2786,0.2875,0.2781,0.2781,0.2794,0.2974,0.2781,0.2775,0.289,0.2893,0.2895,0.2954,0,0.2028,0.2073,0.2111,0.217,0.2195,0.2265,0.2332,0.241,0.2487,0.2577,0.2646,0.273,0.273,0.278,0.2829,0.287,0.2911,0.286,0.2905,0.2906,0.272,0.2783,0.2903,0.2963,0.2965,0.2967,0.2968,0,0.2016,0.2052,0.2106,0.2185,0.2206,0.2261,0.2375,0.2444,0.2574,0.264,0.2739,0.2794,0.2896,0.2879,0.2983,0.2959,0.2977,0.2994,0.2996,0.2795,0.2734,0.2874,0.2989,0.2988,0.2986,0.2985,0.2983,0,0.1964,0.2042,0.2086,0.2114,0.2215,0.2276,0.2348,0.2474,0.2544,0.2699,0.2771,0.288,0.296,0.3011,0.3059,0.3041,0.3153,0.3122,0.2957,0.2944,0.3066,0.3053,0.3184,0.3184,0.3183,0.3183,0.3183,0,0.1925,0.1965,0.2075,0.2098,0.2172,0.2263,0.2363,0.2455,0.2594,0.2675,0.2809,0.2877,0.3006,0.3079,0.3095,0.3059,0.3183,0.2971,0.2949,0.3096,0.3086,0.3074,0.306,0.3185,0.3185,0.3185,0.3184,0,0.1849,0.192,0.1978,0.21,0.2147,0.2209,0.2364,0.2424,0.2581,0.2696,0.2756,0.2915,0.3005,0.3091,0.3177,0.3085,0.3081,0.3035,0.3192,0.3178,0.2829,0.282,0.2843,0.2837,0.2831,0.2827,0.2823,0,0.1808,0.1831,0.1966,0.2005,0.207,0.2178,0.2243,0.2404,0.2468,0.2685,0.2718,0.2877,0.2961,0.292,0.3023,0.3029,0.2994,0.296,0.2881,0.2819,0.2797,0.2796,0.2793,0.2815,0.2813,0.2812,0.2811,0,0.1727,0.1794,0.1841,0.1927,0.2004,0.207,0.2185,0.2212,0.2393,0.2559,0.2611,0.2656,0.2748,0.2793,0.2826,0.2823,0.2962,0.2903,0.2913,0.2839,0.2785,0.2768,0.2772,0.2792,0.2795,0.2797,0.2798,0,0.1674,0.1686,0.1761,0.1817,0.1906,0.1931,0.2007,0.2072,0.2153,0.2385,0.2395,0.2563,0.2717,0.2688,0.2717,0.2703,0.2652,0.2544,0.2572,0.2593,0.2483,0.2377,0.2243,0,0,0,0,0,0.1604,0.1598,0.1642,0.1684,0.1764,0.1818,0.1944,0.2023,0.22,0.2172,0.2274,0.2344,0.2387,0.2469,0.2403,0.261,0.2668,0.252,0.2559,0.269,0.2712,0.2605,0,0,0,0,0,0,0.1554,0.1589,0.1592,0.156,0.1568,0.1635,0.171,0.183,0.1822,0.2013,0.2049,0.2192,0.2272,0.2402,0.2357,0.2381,0.2352,0.2626,0.2619,0.2678,0.2698,0.2715,0.2612,0,0,0,0,0]},{"header":{"parameterUnit":"m.s-1","parameterCategory":2,"la1":30.2991,"la2":30.254,"lo1":-89.0895,"lo2":-89.0444,"dy":0.0017,"dx":0.0017,"nx":28,"ny":28,"refTime":"2024-05-25T03:00:00:Z","depth":"4","parameterNumber":3,"parameterNumberName":"V-component_of_CURRENTS"},"data":[0,0,0,0,0,0,0,0,0,0,0,0,0,0,0,0,0,0,0,0,0,0,0,0,0,0,0,0,0,0,0,0,0,0,0,0,0,0,0,0,0,0,0,0,0,0,0,0,0,0,0,0,0,0,0,0,0,0,0.0119,0.0118,0,0.0096,0.0096,0.0096,0.0075,0.0075,0.0075,0.0074,0.0023,0.0022,0.0021,0,0,0,0,0,0,0,0,0,0,0,0,0,0.0115,0.0115,0.0119,0.0118,0.0118,0.0096,0.0096,0.0096,0.0075,0.0075,0.0075,0.0074,0.0024,0.0022,0.0021,0,0,0,0,0,0,0,0,0,0,0,0,0,0.0106,0.0116,0.0119,0.0106,0.0105,0.0096,0.0096,0.0095,0.0075,0.0075,0.0074,0.0074,0.0024,0.0022,0.0021,0.0014,0,0,0.0015,0.0014,0,0,0,0,0,0,0,0,0.0107,0.0106,0.0108,0.0107,0.0106,0.0089,0.0076,0.0067,0.0075,0.0085,0.0074,0.0074,0.0043,0.004,0.0035,0.0012,0.0009,0.0015,0.0014,0.0013,0.0012,0,0,0,0,0,0,0,0.0107,0.0107,0.0109,0.0108,0.0106,0.0092,0.0091,0.0074,0.0064,0.0084,0.0083,0.0082,0.0042,0.0037,0.0034,0.0009,0.0015,0.0013,0.0012,0.0011,-0.0011,-0.0011,0,0,0,0,0,0,0.0114,0.0108,0.0109,0.0108,0.0107,0.0093,0.0091,0.0094,0.0065,0.0061,0.0083,0.0081,0.004,0.0036,0.0032,0.0047,0.0013,0.0011,0.001,-0.0012,-0.0011,-0.001,0,0,0,0,0,0,0.0114,0.0115,0.011,0.0108,0.0107,0.0093,0.0096,0.0093,0.0093,0.0064,0.006,0.0086,0.004,0.0034,0.0027,0.0043,0.001,0.0009,-0.0012,-0.0011,-0.0011,0.006,0,0,0,0,0,0,0.0114,0.0115,0.0122,0.0109,0.0107,0.0113,0.0097,0.0093,0.0093,0.0092,0.0065,0.006,0.0039,0.003,0.0025,0.004,0.0007,-0.0013,-0.0012,-0.0011,0.0057,0.0063,0.0068,0,0,0,0,0,0.0114,0.0126,0.0122,0.0123,0.0116,0.0114,0.0112,0.01,0.0094,0.0098,0.0082,0.0061,0.0032,0.0029,0.0023,0.0038,-0.0013,-0.0012,-0.0011,0.0055,0.0062,0.0068,0,0,0,0,0,0,0.0126,0.0124,0.012,0.013,0.0126,0.0111,0.0114,0.0106,0.0097,0.0096,0.0068,0.0062,0.0061,0.0039,0.0036,0.0033,0.0006,0.0006,0.0058,0.0064,0.007,0.0081,0.0006,0,0,0,0,0,0.0133,0.0142,0.0135,0.0143,0.0143,0.013,0.0129,0.0122,0.0111,0.0107,0.009,0.0072,0.006,0.0054,0.0037,0.0037,0.0006,0.0042,0.0048,0.0053,0.0057,0.0025,0.0028,-0.0007,-0.0007,-0.0007,0,0,0.014,0.014,0.0145,0.0146,0.0141,0.0153,0.0129,0.0131,0.0143,0.0102,0.0113,0.009,0.0063,0.0065,0.0062,0.005,0.0046,0.0054,0.0059,0.006,0.0026,0.003,0.0033,-0.0006,-0.0006,-0.0006,0,0,0.0159,0.0158,0.0173,0.0176,0.0175,0.017,0.0174,0.0166,0.0165,0.017,0.0145,0.0133,0.0117,0.0102,0.0092,0.0117,0.0075,0.0111,0.0152,0.0121,0.0124,0.0126,0.0093,0.0092,0.0117,0.0117,0.0117,0,0.0167,0.0188,0.0176,0.0193,0.0204,0.0183,0.0206,0.0202,0.0194,0.0199,0.0183,0.0162,0.0136,0.014,0.0147,0.0131,0.0104,0.0132,0.0129,0.013,0.0131,0.0097,0.0095,0.0121,0.012,0.012,0.0119,0,0.0198,0.0218,0.0227,0.0246,0.0254,0.0269,0.0267,0.0274,0.027,0.0265,0.0266,0.023,0.0219,0.0208,0.0186,0.0184,0.016,0.0139,0.0115,0.0139,0.0102,0.0098,0.0126,0.0124,0.0123,0.0122,0,0,0.0214,0.0244,0.025,0.0275,0.0287,0.0301,0.0323,0.034,0.0362,0.0342,0.0365,0.0333,0.0309,0.0296,0.0263,0.0234,0.0213,0.0195,0.0191,0.0167,0.0143,0.0127,0.0121,0.0192,0.0191,0.0191,0.0116,0,0.0246,0.0292,0.03,0.0352,0.0378,0.0379,0.0409,0.0419,0.0417,0.0431,0.0393,0.0398,0.0345,0.0345,0.0307,0.024,0.0206,0.0235,0.0119,0.0115,0.0102,0.0117,0.019,0.0113,0.0112,0.0111,0.011,0,0.0277,0.0308,0.0364,0.0419,0.0432,0.0462,0.0508,0.0533,0.0539,0.0538,0.0524,0.0491,0.0457,0.0406,0.0299,0.0321,0.0239,0.0177,0.0173,0.013,0.0092,0.0081,0.0102,0.0103,0.0104,0.0104,0.0105,0,0.0299,0.0356,0.0408,0.0426,0.0479,0.0514,0.0545,0.0567,0.0605,0.061,0.063,0.057,0.0559,0.0447,0.0319,0.031,0.0192,0.0162,0.0067,0.0065,0.007,0.0068,0.008,0.008,0.008,0.0081,0.0081,0,0.033,0.0374,0.0428,0.0458,0.0537,0.0558,0.0635,0.0654,0.0693,0.0749,0.0692,0.0707,0.0568,0.0484,0.0348,0.02,0.0211,0.0077,0.0047,0.0101,0.0104,0.0067,0.0066,0.0078,0.0078,0.0079,0.0079,0,0.0347,0.0378,0.0445,0.0516,0.0551,0.0608,0.0707,0.0757,0.0786,0.0856,0.0867,0.0816,0.0709,0.0553,0.0377,0.0254,0.0103,0.0044,0.0121,0.0096,-0.0013,-0.0009,-0.0067,-0.0068,-0.0069,-0.007,-0.007,0,0.0357,0.0393,0.0491,0.0542,0.0582,0.0673,0.0741,0.0803,0.086,0.092,0.0954,0.0886,0.0827,0.0574,0.0391,0.0134,0.0088,0.0002,-0.0016,-0.0004,-0.0028,-0.0022,-0.0017,-0.0072,-0.0072,-0.0072,-0.0073,0,0.0379,0.0415,0.0473,0.058,0.0663,0.0763,0.0862,0.0912,0.0993,0.1019,0.1035,0.0918,0.0797,0.0587,0.0392,0.0201,0.0054,-0.0009,-0.0009,-0.0027,-0.0011,-0.0032,-0.0026,-0.0076,-0.0075,-0.0075,-0.0075,0,0.0397,0.0437,0.0516,0.0613,0.0721,0.0826,0.0878,0.0957,0.1023,0.1085,0.1085,0.0962,0.0896,0.0621,0.0438,0.0254,0.0193,0.0113,0.0105,0.0107,0.017,0.0217,0.0201,0,0,0,0,0,0.0409,0.0457,0.0544,0.0654,0.0761,0.0831,0.0951,0.0994,0.1071,0.1093,0.1097,0.0987,0.0743,0.0635,0.0449,0.0387,0.0139,0.0157,0.0037,-0.0095,-0.0091,-0.0048,0,0,0,0,0,0,0.0417,0.0492,0.0539,0.0675,0.0753,0.0882,0.0961,0.1013,0.1025,0.107,0.0945,0.0914,0.0671,0.085,0.0438,0.0384,0.0274,0.0053,0.0047,-0.0097,-0.0093,-0.009,-0.0045,0,0,0,0,0]}]]